Aérodrome :
LOGIN :

S'inscrire | Disclaimer

   EN    FR    IT 

 










Légende :    VFR   VFR Marginal   IFR   IFR Intensif   IFR Très Intensif
Visi : 
Plafond : 
>= 8 km
>= 3000ft
5 à 8 km
1000 à 3000 ft
1500m à 5 km
500 à 1000 ft
800 à 1500m
200 à 500 ft
< 800m
< 200 ft
Symboles :   Orages  Brouillard  Fortes neiges  Fortes précipitations  Vent > 20 kt
SIGMETs :   Divers  Orages  Givrage  Turbulence  Onde Orograph.  Cendres Volcan.







- Altitude de l'aérodrome : 485 ft
- Code IATA : QSA


LELL - Sabadell

DERNIER METAR :
  • 220000Z AUTO 00000KT 9999 NCD 14/10 Q1019

METARs EXPIRÉS :
  • 212330Z AUTO 00000KT 9999 NCD 15/10 Q1019
  • 212300Z AUTO 00000KT 9999 NCD 15/10 Q1020
  • 212230Z AUTO 00000KT 9999 NCD 15/10 Q1020
  • 212200Z AUTO 00000KT 9999 NCD 16/09 Q1020
  • 212130Z AUTO 00000KT 9999 NCD 17/10 Q1020

TAF TAF LELL
Valide du 21 à 15h jusqu'au 22 à 15h UTC


211400Z 2115/2215 26005KT 9999 FEW040 TX26/2213Z TN11/2206Z
TEMPO 2115/2118 18010KT
TEMPO 2210/2215 20010KT
Pas de NOTAMs connus pour ce terrain.



MET'MAP, la Météo Aéronautique d'un coup d'oeil ! - Copyright ORBIFLY Décembre 2007 - Disclaimer

ORBIFLY MET'MAP TEAM :

Programmation & Développement : Alexandra Zaïnal
Conception & Développement : Baudouin d'Aumeries
Co-Programmation & Développement : Marc-Olivier Méhu
Soutien technique & logistique : Manuel Goepfert

Contact : metmap@orbifly.com




SOURCES & CREDITS :

   NOAA